Debrecen, Hungary

12:29 AM CET on January 20, 2018 (GMT +0100)
Debrecen

Weather History for LHDC - September, 2012

Change the Weather History Date:

Thursday, September 6, 2012

  Actual Average Record
Temperature  
Mean Temperature 69 °F -  
Max Temperature 75 °F 70 °F - ()
Min Temperature 63 °F 49 °F - ()
Cooling Degree Days 4    
Growing Degree Days 19 (Base 50)    
Moisture  
Dew Point 56 °F    
Average Humidity 67    
Maximum Humidity 94    
Minimum Humidity 37    
Precipitation  
Precipitation 0.02 in 0.05 in - ()
Sea Level Pressure  
Sea Level Pressure 30.02 in    
Wind  
Wind Speed 9 mph ()    
Max Wind Speed 21 mph    
Max Gust Speed 33 mph    
Visibility 6.5 miles    
Events Rain , Thunderstorm    
T = Trace of Precipitation, MM = Missing Value Source: Averaged Metar Reports

Daily Weather History Graph

Daily Weather History Graph

Search for Another Location

Airport or City:

Trip Planner

Search our weather history database for the weather conditions in past years. The results will help you decide how hot, cold, wet, or windy it might be!

Date:

Astronomy

Sep. 06, 2012 Rise Set
Actual Time 5:59 AM CEST 7:03 PM CEST
Civil Twilight 5:27 AM CEST 7:34 PM CEST
Nautical Twilight 4:50 AM CEST 8:12 PM CEST
Astronomical Twilight 4:09 AM CEST 8:52 PM CEST
Moon 9:32 PM CEST (9/6) 12:09 PM CEST (9/6)
Length of Visible Light 14h 07m
Length of Day
13h 04m
Waning Gibbous, 70% of the Moon is Illuminated
Sep 6
Waning Gibbous
Sep 8
Last Quarter
Sep 16
New
Sep 22
First Quarter
Sep 30
Full

Hourly Weather History & Observations

Time (CEST) Temp. Dew Point Humidity Pressure Visibility Wind Dir Wind Speed Gust Speed Precip Events Conditions
2:00 AM 70 °F 60 °F 62% 29.92 in - ENE 4.5 mph - -  
2:00 AM 71.6 °F 60.8 °F 69% 29.95 in - WNW 6.9 mph - N/A   Unknown
2:01 AM 71.6 °F 60.8 °F 69% 29.95 in - NW 6.9 mph - N/A   Unknown
4:45 AM 68.0 °F 60.8 °F 78% 29.92 in 6.2 mi North 12.7 mph - N/A Rain , Thunderstorm Thunderstorms and Rain
6:15 AM 68.0 °F 59.0 °F 73% 29.98 in 6.2 mi North 4.6 mph - N/A Rain , Thunderstorm Thunderstorms and Rain
6:45 AM 64.4 °F 60.8 °F 88% 29.98 in 6.2 mi West 5.8 mph - N/A Rain Light Rain Showers
7:00 AM - - N/A% - 6.2 mi NNE 9.2 mph - N/A   Mostly Cloudy
7:15 AM 64.4 °F 60.8 °F 88% 29.98 in 6.2 mi NW 9.2 mph - N/A Rain Light Rain Showers
7:21 AM 64.4 °F 60.8 °F 88% 29.98 in - NNW 13.8 mph 27.6 mph N/A   Unknown
7:45 AM 64.4 °F 62.6 °F 94% 29.98 in 6.2 mi NW 10.4 mph - N/A Rain Light Rain
8:00 AM 65 °F 62 °F 87% 29.98 in 6 mi NW 11.2 mph - - Rain Light Rain
8:15 AM 64.4 °F 60.8 °F 88% 29.98 in 6.2 mi North 12.7 mph - N/A Rain Light Rain
8:45 AM 64.4 °F 60.8 °F 88% 29.98 in 6.2 mi North 10.4 mph - N/A Rain Light Rain
9:15 AM 66.2 °F 60.8 °F 83% 29.98 in - NNE 10.4 mph - N/A   Clear
9:45 AM 66.2 °F 60.8 °F 83% 29.98 in - NNE 6.9 mph - N/A   Clear
10:00 AM - - N/A% - - NNE 13.8 mph - N/A Rain , Thunderstorm Rain Showers
10:15 AM 66.2 °F 59.0 °F 78% 30.01 in - NNE 8.1 mph - N/A   Clear
10:45 AM 66.2 °F 60.8 °F 83% 30.01 in - NNE 13.8 mph - N/A   Clear
11:15 AM 68.0 °F 60.8 °F 78% 30.01 in - NNE 8.1 mph - N/A   Clear
12:15 PM 71.6 °F 59.0 °F 64% 30.01 in 6.2 mi ENE 8.1 mph - N/A   Mostly Cloudy
12:45 PM 73.4 °F 60.8 °F 65% 30.01 in 6.2 mi NNE 9.2 mph - N/A   Mostly Cloudy
1:00 PM - - N/A% - 6.2 mi NNE 11.5 mph - N/A   Mostly Cloudy
1:15 PM 73.4 °F 60.8 °F 65% 30.04 in 6.2 mi North 8.1 mph - N/A   Mostly Cloudy
1:45 PM 73.4 °F 60.8 °F 65% 30.04 in 6.2 mi NNE 9.2 mph - N/A   Mostly Cloudy
2:00 PM 73 °F 60 °F 54% 30.02 in 16 mi NNE 8.9 mph - -   Partly Cloudy
2:15 PM 73.4 °F 59.0 °F 61% 30.04 in 6.2 mi NNE 9.2 mph - N/A   Mostly Cloudy
2:45 PM 75.2 °F 59.0 °F 57% 30.04 in 6.2 mi North 12.7 mph - N/A   Overcast
3:12 PM 73.4 °F 57.2 °F 57% 30.04 in - NNE 16.1 mph 27.6 mph N/A   Unknown
3:15 PM 73.4 °F 57.2 °F 57% 30.04 in 6.2 mi North 16.1 mph - N/A   Mostly Cloudy
3:45 PM 69.8 °F 55.4 °F 60% 30.06 in 6.2 mi NNE 19.6 mph - N/A   Mostly Cloudy
4:00 PM - - N/A% - 2.5 mi NNE 11.5 mph - N/A Rain , Thunderstorm Rain Showers
4:15 PM 68.0 °F 50.0 °F 52% 30.06 in - NNE 20.7 mph 33.4 mph N/A   Clear
4:45 PM 68.0 °F 50.0 °F 52% 30.06 in - NNE 19.6 mph - N/A   Clear
5:15 PM 68.0 °F 48.2 °F 49% 30.06 in - North 12.7 mph - N/A   Clear
5:45 PM 66.2 °F 44.6 °F 46% 30.06 in - NNE 18.4 mph - N/A   Clear
6:15 PM 66.2 °F 42.8 °F 43% 30.06 in - North 15.0 mph - N/A   Clear
6:45 PM 64.4 °F 42.8 °F 45% 30.09 in - NNE 16.1 mph - N/A   Clear
7:15 PM 64.4 °F 44.6 °F 49% 30.09 in - NNE 15.0 mph - N/A   Clear
7:45 PM 64.4 °F 44.6 °F 49% 30.12 in - NNE 12.7 mph - N/A   Clear
8:00 PM 64 °F 44 °F 37% 30.10 in 25 mi NNE 13.4 mph - -   Partly Cloudy
9:00 PM - - N/A% - - North - - N/A   Unknown